Showing default

LCS 1, 1361

Orbit data source: Space-Track

LCS 1, 1361 is an American payload satellite in LEO that was launched on Thu, 06 May 1965 UTC via a TITAN IIIA launch vehicle from the Air Force Eastern Test Range (AFETR). Payload-class satellites include a variety of spacecraft equipped with specific instruments for various scientific and technological missions. These include communications satellites like Starlink; space stations such as the ISS; scientific satellites like the Hubble; Earth observation satellites from companies like Planet Labs, Umbra, and HawkEye 360; GPS; miniature CubeSats for education and research; and military/defense satellites.

Loading next visibility...
Identifier
1361, 1965-034C
Orbit
LEO
Country
Flag of USUS
Related business
Manufacturer
ROHR/MITLL
Mission
Operational spacecraft
Bus & Motor
LCS, Unknown motor
Mass
34 kg wet, 34 kg dry
Launch date (UTC)
1965-05-06 (61 years ago)
Launch vehicle
TITAN IIIA
Launch site
Air Force Eastern Test Range (AFETR)
Object type
Payload
Rocket body
Debris
Shape & HBR
SPHERE, 1.1 m
Radar Cross Section
Large (>1 m²)

Expand to show TLE details & history
Last TLE update: 12 hours ago

TLE from 12 hours ago
0 LCS 1
1 01361U 65034C   26264.40357269  .00000014  00000-0  78189-3 0  9996
2 01361  32.1438 308.5804 0011100 103.9223 256.2510  9.89310780219418
Epoch: 2026-09-21T09:41Z
TLE epoch observation values (Epoch: 2026-09-21T09:41:08.680Z)
Latitude
0.00002°
Longitude
163.01037°
Altitude
2,789.255 km
Speed
6.595 km/s
True Right ascension
20h 34m 19s
True Declination
0° 00' 00"
Sunlit
Object was in daylight at epoch
Visualization orbit readout
Latitude
Unknown
Longitude
Unknown
Altitude
Unknown
Speed
Unknown
Apparent Right ascension
Unknown
Apparent Declination
Unknown
Sunlit
N/A
Visualization observer readout
Local Sidereal Time
15:12:13
Azimuth
Unknown
Elevation
Unknown
Doppler factor
Unknown
Orbital elements
Apogee altitude
2,800.815 km
Perigee altitude
2,780.46 km
Semi-major axis
9,168.774 km
Eccentricity
0.00111
Inclination
32.1438°
RAAN
308.5804°
Arg. of periapsis
103.9223°
True anomaly
256.12749°
Mean anomaly
256.251°
Eccentric anomaly
256.18924°
Mean motion
2.47216 °/min
Orbital period
145.62 mins
BSTAR
0.00078189
Loading maneuver chart data...
Computing Atmospheric mass density...
Loading historical data...
Loading historical data...
Loading historical data...
Loading historical data...
Loading historical data...
Loading historical data...
Loading historical data...
Other satellites on launch #34 in the year 1965 (1965-05-06 UTC)

Documentation

Showing up to 5 results
|